Regional Weather Roundup
Issued by NWS

Home | Current Version | Previous Version | Graphics & Text | Print | Product List | Glossary On
Versions: 1 2 3 4 5 6 7 8 9 10 11 12 13 14 15 16 17 18 19 20 21 22 23 24 25 26 27 28 29 30 31 32 33 34 35 36 37 38 39 40 41 42 43 44 45 46 47 48 49 50
934
ASUS43 KLOT 192103
RWRIL

ILLINOIS REGIONAL WEATHER ROUNDUP
NATIONAL WEATHER SERVICE CHICAGO/ROMEOVILLE IL
300 PM CST MON FEB 19 2018

NOTE: "FAIR" INDICATES FEW OR NO CLOUDS BELOW 12,000 FEET WITH NO
SIGNIFICANT WEATHER AND/OR OBSTRUCTIONS TO VISIBILITY.

* THESE STATIONS ARE NOT UNDER NWS QUALITY CONTROL. THEY ALSO MAY NOT
  REPORT WEATHER SUCH AS PRECIPITATION OR FOG.

ILZ001-002-007-009-015-016-024-192200-
NORTHWEST ILLINOIS

CITY           SKY/WX    TMP DP  RH WIND       PRES   REMARKS
MOLINE         CLOUDY    63  57  81 S14G23    29.67S
STERLING*      CLOUDY    53  52  96 VRB6      29.72R
SAVANNA*       FOG       44  44  99 NE5       29.69F VSB 1/4
$$

ILZ003-004-008-010-011-017-018-192200-
NORTH CENTRAL ILLINOIS

CITY           SKY/WX    TMP DP  RH WIND       PRES   REMARKS
ROCKFORD       FOG       43  42  97 CALM      29.75R VSB 1/8
FREEPORT*      FOG       38  38  99 E5        29.74R VSB<1/4 WCI  34
ROCHELLE*      FOG       43  43 100 S14       29.74R VSB<1/4
DE KALB*       RAIN      43  43  99 S13       29.76R VSB<1/4
PERU*          CLOUDY    56  53  86 SW18      29.78R
$$

ILZ005-006-012>014-019>023-192200-
NORTHEAST ILLINOIS

CITY           SKY/WX    TMP DP  RH WIND       PRES   REMARKS
CHICAGO-OHARE  CLOUDY    56  53  90 SW18G28   29.76R
CHICAGO-MIDWAY CLOUDY    56  55  97 S14G22    29.79R
AURORA         PTSUNNY   52  51  97 S18       29.77R
LANSING*       CLOUDY    52  52 100 SW18      29.82R
JOLIET*        CLOUDY    56  55  97 S12G17    29.79R
WAUKEGAN       RAIN      38  38 100 N3        29.76R VSB 1/4
DUPAGE AIRPORT CLOUDY    51  51 100 S12       29.77R FOG
KANKAKEE*      CLOUDY    58  57  98 SW18G29   29.85R
WHEELING       LGT RAIN  55  54  96 S16       29.78R
MORRIS*        CLOUDY    52  52  99 S15G21    29.78R
ROMEOVILLE*    CLOUDY    53  53 100 SW17      29.79R
NORTHERLY ISL    N/A     55  52  89 S16         N/A
$$

LMZ740>746-192200-
SOUTHERN LAKE MICHIGAN

STATION/POSITION SKY/WX   TEMP    WIND        PRES    VSBY  WAVE
                          AIR SEA DIR/SP/G                  HT/PER
                          (F)     (DEG/KT/KT) (MB)    (MI)  (FT/S)
HARRISON CRIB              56     210/ 25/ 27   N/A
BURNHAM HARBOR             56     190/ 13/ 16   N/A
CALUMET HARBOR             55     190/  9/ 17 1008.2R
BURNS HARBOR               55     200/ 20/ 27 1009.8R
MICHIGAN CITY              57     180/ 19/ 22   N/A
$$

ILZ025>027-034>036-040-047-049-050-058-095>099-192200-
WEST-CENTRAL ILLINOIS

CITY           SKY/WX    TMP DP  RH WIND       PRES   REMARKS
QUINCY         LGT RAIN  60  58  92 S15       29.75F
GALESBURG*     CLOUDY    61  57  87 S12G18    29.74R
MACOMB*        CLOUDY    62  57  84 S18       29.76S
JACKSONVILLE*  RAIN      59  57  92 S15G21    29.81F
PITTSFIELD*    LGT RAIN  60  59  96 S17G24    29.81R
$$

ILZ028>032-037-038-041>044-048-051>054-059>061-192200-
CENTRAL ILLINOIS

CITY           SKY/WX    TMP DP  RH WIND       PRES   REMARKS
PONTIAC        CLOUDY    60  60  99 S24G31    29.83R
BLOOMINGTON    RAIN      58  56  93 S28       29.83R
DECATUR        RAIN      59  32  36 S26G36    29.88S
PEORIA         LGT RAIN  60  57  89 S16G29    29.79R
LACON*         RAIN      59  56  90 SW20G28   29.77R
LINCOLN*       LGT RAIN  60  59  98 S14G23    29.84R
SPRINGFIELD    LGT RAIN  61  59  93 S21G31    29.83F FOG
TAYLORVILLE    RAIN      58  58  99 S21       29.88F
$$

ILZ033-039-045-046-055>057-062-063-192200-
EAST-CENTRAL ILLINOIS

CITY           SKY/WX    TMP DP  RH WIND       PRES   REMARKS
CHAMPAIGN      RAIN      59  57  93 S24G32    29.90R FOG
DANVILLE*      RAIN      59  57  91 S26G33    29.88R
RANTOUL*       DRIZZLE   61  59  94 S20G26    29.88R
MATTOON        LGT RAIN  59  57  93 S10       29.94R
PARIS*         LGT RAIN  60  58  95 S13G18    29.96R
$$

ILZ079-100>102-192200-
SOUTHWEST ILLINOIS

CITY           SKY/WX    TMP DP  RH WIND       PRES   REMARKS
ALTON          CLOUDY    59  59 100 S14G23    29.87F
BELLEVILLE     CLOUDY    66  59  80 S8        29.88F
CAHOKIA*         N/A    N/A N/A N/A CALM      29.87F
SPARTA*        CLOUDY    68  59  74 S15G21    29.93R
$$

ILZ064>066-069>071-074>076-080>082-084>086-088>090-092>094-192200-
SOUTH-CENTRAL ILLINOIS

CITY           SKY/WX    TMP DP  RH WIND       PRES   REMARKS
CARBONDALE     CLOUDY    70  58  65 S26G43    29.93S
CAIRO*         PTSUNNY   72  61  69 SW13G21   29.97F
EFFINGHAM*     LGT RAIN  64  59  85 S12G20    29.95R
MARION         MOSUNNY   68  59  73 S25G36    29.97R
MT. VERNON     CLOUDY    68  57  68 SW26      29.94S
CENTRALIA*     PTSUNNY   67  59  75 S22G30    29.93R
SALEM*         CLOUDY    67  57  71 S21       29.93R
METROPOLIS*    PTSUNNY   73  58  57 S12G23    30.00S
$$

ILZ067-068-072-073-078-083-087-091-192200-
SOUTHEAST ILLINOIS

CITY           SKY/WX    TMP DP  RH WIND       PRES   REMARKS
LAWRENCEVILLE  CLOUDY    69  58  67 SW20      29.99R
FLORA*         CLOUDY    69  59  70 S24G33    29.94F
FAIRFIELD*     CLOUDY    68  58  70 S17G24    29.95S
HARRISBURG*    PTSUNNY   71  60  67 SW22G29   29.98S
ROBINSON*      CLOUDY    66  58  73 SW18G25   29.97R
CARMI*         FAIR      72  59  64 S15G25    29.97S
$$

ABBREVIATIONS USED IN REMARKS
   TC - TEMPERATURE IN CELSIUS
  WCI - WIND CHILL INDEX
   HX - HEAT INDEX
  VSB - VISIBILITY
$$





USA.gov is the U.S. government's official web portal to all federal, state and local government web resources and services.